Lid_Strength_Index
7 6 6 6 6 5 6 6 6 6 6 5 5 5 5 5 5 10 11 7 6 3 4 8 8 9 9 11 11 12 16 18 17 16 15 12 13 12 11 12 11 8 9 9 9
7 7 6 6 6 6 6 6 6 6 6 5 5 5 5 5 9 11 7 4 3 3 7 9 10 10 12 12 11 14 17 17 14 13 14 12 13 12 13 13 11 11 9 8 7
8 7 7 7 6 6 6 6 6 6 6 6 6 5 5 6 13 12 5 4 3 4 6 8 9 10 13 12 12 13 16 13 12 12 12 12 11 10 13 14 12 11 10 8 4
8 7 7 7 7 7 6 6 6 6 6 6 6 5 5 9 18 11 5 4 3 5 7 9 10 13 14 14 12 15 12 12 11 11 11 11 8 9 10 12 9 9 8 5 5
8 8 7 7 7 7 7 7 6 6 6 6 6 5 8 14 14 9 5 5 6 6 9 10 11 13 15 14 13 14 13 12 11 11 11 8 9 9 9 8 6 6 7 5 5
8 7 7 7 7 7 7 7 6 6 6 6 6 5 11 16 10 8 8 7 6 7 8 9 11 11 13 13 14 12 13 12 11 11 9 8 8 8 8 5 5 6 5 5 5
8 7 7 7 7 7 7 7 6 7 7 6 6 7 12 14 9 9 7 7 6 7 9 8 9 11 12 13 11 11 15 14 12 11 9 8 10 10 6 6 6 6 6 5 5
8 7 7 7 7 7 7 7 6 7 6 6 6 9 14 9 10 9 8 7 6 6 7 7 8 10 11 10 11 14 15 18 13 11 9 10 13 8 6 7 8 7 6 5 5
7 7 7 7 7 7 7 6 7 8 6 6 11 12 15 8 11 10 9 9 7 7 7 6 8 11 10 14 18 18 21 17 15 11 9 10 13 8 6 7 8 7 6 6 5
7 7 7 7 7 7 7 7 9 10 9 7 10 14 13 14 11 10 9 8 9 9 9 10 12 15 14 18 23 19 22 18 18 13 9 11 12 9 7 7 8 7 7 6 7
7 7 7 7 7 7 9 14 16 15 15 17 16 15 14 12 10 10 9 9 9 10 14 12 16 19 17 15 16 20 21 20 17 12 11 12 12 10 8 8 8 8 8 8 7
7 7 7 7 7 8 12 15 15 15 18 15 15 14 13 12 13 11 9 11 12 15 14 16 19 14 13 13 15 18 20 19 16 12 11 12 12 10 9 9 8 9 9 8 7
7 7 7 7 7 11 13 13 11 12 18 17 16 15 14 12 13 12 11 12 13 15 15 17 15 11 12 13 14 13 17 17 18 13 12 13 14 12 10 10 10 9 10 10 10
7 7 7 7 11 13 14 11 10 12 22 19 17 15 13 13 14 11 10 12 13 16 15 15 14 13 13 14 13 15 12 13 14 16 20 14 22 14 12 12 11 10 11 11 10
7 7 7 8 13 14 12 11 12 15 26 18 17 13 13 14 14 13 10 12 16 15 16 17 16 16 15 15 13 14 12 12 14 16 18 17 19 15 13 14 13 11 11 11 11
7 7 8 11 12 12 11 12 14 21 26 20 17 16 16 15 14 13 13 12 13 15 15 15 13 14 15 14 14 13 13 13 14 17 22 19 19 18 15 13 12 11 11 11 11
6 8 10 10 14 11 12 16 21 24 20 23 19 17 17 17 16 15 15 18 20 22 23 17 16 14 14 16 14 14 16 20 22 23 23 18 19 19 15 12 13 12 12 12 11
7 8 10 10 12 12 15 20 26 26 25 19 18 17 19 17 17 16 17 19 17 19 24 22 22 16 14 16 16 16 17 21 24 23 21 17 20 18 14 13 12 13 13 13 12
8 12 12 12 11 13 18 25 24 25 19 19 19 21 22 18 18 18 20 20 18 17 21 23 21 15 15 14 15 17 18 17 20 24 22 20 17 15 14 15 15 14 14 14 15
11 12 13 11 12 16 21 21 24 19 18 18 23 21 26 23 21 20 20 18 17 16 16 18 21 17 14 14 14 15 14 19 20 27 26 21 19 18 15 15 15 16 16 16 15
12 17 13 12 14 19 23 25 24 19 17 19 20 24 21 22 23 22 20 18 18 17 16 17 19 19 16 17 18 17 17 17 18 19 22 24 21 16 14 13 14 15 15 16 16
13 16 13 14 21 29 25 24 17 19 17 18 18 19 19 20 21 22 20 18 18 17 18 17 18 22 19 16 14 16 17 17 21 21 21 20 20 14 14 14 14 14 14 15 15
15 15 12 13 19 26 25 24 19 19 18 18 19 17 17 18 22 19 19 17 17 17 17 16 22 26 23 19 17 17 16 15 17 18 20 22 21 14 15 15 15 15 15 15 15
14 17 15 15 17 19 25 25 24 18 17 17 18 17 18 20 21 22 18 17 16 16 13 14 18 21 24 20 19 18 17 16 17 22 20 20 20 17 16 16 16 16 15 15 15
15 15 15 18 19 17 18 22 22 22 17 17 18 18 19 23 21 22 21 18 17 16 16 18 24 22 19 18 18 18 18 17 17 18 19 19 18 16 15 15 16 16 15 15 15
15 16 14 16 16 17 18 20 20 20 19 20 20 18 18 21 19 22 19 19 19 19 18 18 26 25 27 22 21 21 19 19 18 17 18 17 17 14 14 16 17 16 15 16 15
12 12 12 14 16 16 18 18 18 18 18 17 18 18 18 18 18 18 18 18 18 19 22 23 26 29 28 27 27 26 24 20 19 18 17 18 15 15 16 15 15 15 15 14 15